GFSMW_sfc_thetae_159.txt.gz
Theta_e
332 338 333 337 346 349 348 349 349 351 350 349 344 343 341 344 351 351 352 350 350 351 349 348 345 347 342 341 340 337 335 333 328 333 324 331 334 332 332 332 336 335 341
330 333 335 335 332 342 347 350 350 350 349 347 346 344 344 350 347 345 345 345 339 338 334 332 332 333 325 327 325 322 319 322 321 318 317 317 322 322 324 330 330 333 333
323 327 328 330 330 327 348 350 349 350 349 347 349 348 348 345 338 335 334 334 333 332 329 329 327 324 323 320 322 321 317 316 318 317 315 310 310 313 319 318 323 324 328
324 325 325 326 328 327 334 350 350 349 351 351 346 344 341 338 335 331 329 329 329 328 329 327 325 324 323 320 322 323 317 317 313 315 318 313 311 307 306 311 314 315 315
323 325 326 327 328 330 335 348 348 349 350 348 348 344 334 332 330 328 324 323 323 325 327 326 323 321 322 320 320 317 314 315 316 313 312 310 308 309 306 303 308 311 312
322 323 327 327 336 341 343 344 345 346 348 346 345 337 332 329 326 323 321 319 321 323 324 324 325 321 320 320 318 316 313 316 311 314 312 307 307 306 305 306 306 306 308
320 323 327 330 335 343 345 345 345 344 344 345 343 334 331 327 324 324 322 319 320 320 321 322 320 320 319 319 318 315 312 312 310 313 312 311 307 308 306 305 304 304 307
319 326 325 330 338 343 344 345 344 343 342 338 336 333 331 329 327 323 322 321 321 320 321 322 321 320 320 319 317 315 314 313 313 311 309 308 309 307 305 304 304 300 301
317 323 323 335 339 342 343 343 344 339 336 333 329 328 325 324 322 322 323 321 321 323 321 321 319 318 317 317 315 313 312 311 310 309 309 307 306 306 306 305 305 302 300
316 317 330 334 340 341 343 342 336 332 331 329 328 326 326 325 324 324 322 320 321 320 318 317 316 316 316 315 313 311 310 308 307 307 305 304 305 306 306 306 305 304 303
316 316 322 333 338 341 339 334 329 327 326 327 326 325 326 325 323 321 320 319 318 316 316 315 315 313 311 310 307 305 305 304 302 303 303 304 305 304 307 307 305 304 305
320 319 322 328 335 334 331 326 325 325 326 326 325 324 324 322 320 318 317 316 315 314 313 313 311 310 308 304 304 304 303 302 301 302 303 303 307 305 306 307 305 304 304
316 319 327 332 331 328 324 323 324 324 325 325 323 322 320 318 316 315 314 313 312 311 309 308 307 306 305 303 302 302 302 301 301 301 302 302 305 304 304 304 303 303 303
320 320 323 326 326 324 323 323 323 324 323 321 318 316 315 315 313 312 311 310 309 306 305 304 305 306 302 301 301 300 299 298 299 300 301 304 303 303 302 302 301 301 300
315 316 315 316 317 317 317 319 322 322 320 318 316 314 312 311 309 308 307 306 305 305 305 305 304 303 301 300 297 297 296 296 297 299 302 303 305 306 304 301 297 296 295
313 314 314 315 314 315 316 316 316 316 315 313 311 308 307 305 304 303 303 304 303 303 303 303 303 301 303 298 299 297 294 295 296 297 301 303 304 304 304 304 304 303 298
310 311 311 312 313 313 313 312 311 308 306 304 304 303 303 303 302 303 302 301 300 299 299 299 300 301 298 297 297 298 294 295 295 298 300 300 302 303 302 302 302 300 301
300 302 302 303 307 309 307 305 304 303 302 301 301 302 302 301 301 300 298 296 296 296 296 297 299 300 300 296 295 296 295 294 295 297 296 297 300 300 300 298 297 297 298
298 297 298 300 300 302 302 302 300 301 301 301 300 301 300 299 298 296 294 294 294 295 296 297 299 300 299 296 296 295 294 293 295 295 295 296 298 298 296 296 296 297 297
299 298 299 299 302 302 301 299 299 299 299 300 300 299 298 297 295 294 293 295 296 297 299 299 299 299 298 296 295 295 295 293 291 292 294 297 297 295 294 295 296 294 296
299 301 301 300 301 300 298 296 296 296 299 300 298 297 295 294 294 293 295 296 297 297 296 294 297 295 297 294 293 293 291 290 289 291 292 296 295 293 293 294 296 295 295
299 299 298 298 300 299 296 294 293 295 297 296 295 293 291 294 295 292 294 295 293 290 290 289 290 292 294 295 292 291 291 291 288 289 292 293 292 292 293 294 294 293 295
299 298 296 295 295 295 294 291 291 293 293 292 291 291 291 291 291 290 290 290 288 287 287 287 287 290 291 290 291 290 290 290 289 290 292 292 291 293 294 294 294 294 294
297 297 295 293 291 292 292 291 291 291 291 289 289 289 289 289 289 290 290 289 288 285 286 286 285 287 288 289 288 288 287 289 289 290 288 291 294 294 294 294 294 293 293
297 296 294 292 291 291 290 291 292 292 291 290 290 289 292 291 291 292 291 291 290 289 288 287 287 286 286 287 289 288 287 288 289 289 290 291 291 290 290 291 292 293 293
295 294 293 291 290 289 290 291 292 292 290 289 290 290 290 291 291 291 291 293 292 291 290 290 288 288 289 289 289 288 289 289 289 290 288 288 288 288 289 290 291 292 291

GFSMW_sfc_thetae_162.txt.gz
Theta_e
328 333 334 337 336 336 334 333 347 349 349 346 343 340 339 347 349 350 348 348 349 347 340 338 332 330 327 323 322 321 318 319 318 316 312 323 327 314 313 320 321 325 328
328 331 331 333 333 331 331 333 337 347 348 346 343 342 346 345 346 345 340 339 335 332 330 328 324 322 323 320 319 314 312 315 316 312 310 308 312 311 312 312 314 315 315
327 327 330 330 330 330 328 331 330 329 347 347 347 346 344 339 334 332 331 330 329 329 328 325 322 320 319 317 316 312 312 312 313 314 309 303 302 305 308 311 310 310 311
328 326 327 326 329 328 331 329 329 332 343 346 346 344 340 332 330 329 329 328 329 326 326 324 323 319 317 316 316 314 312 313 310 311 314 310 309 302 301 305 307 309 309
324 323 325 327 329 331 329 328 330 340 345 344 347 343 337 331 329 327 324 324 324 325 324 321 320 319 318 316 315 311 311 312 309 309 309 306 305 306 301 302 305 306 306
321 323 325 325 326 329 328 328 330 329 335 345 340 338 331 327 323 322 322 320 319 320 322 323 319 318 318 315 316 313 311 310 307 310 308 306 304 302 302 301 301 302 304
320 321 323 326 325 324 326 331 334 332 337 340 336 334 331 327 323 321 321 319 317 317 317 318 317 317 316 317 316 313 310 310 310 309 308 306 304 305 303 300 302 301 302
320 321 323 326 330 328 331 332 329 335 340 337 332 331 329 325 324 323 320 318 317 317 318 319 318 317 317 316 313 311 310 310 308 306 305 305 304 303 302 301 299 299 301
317 321 325 329 330 336 338 332 328 331 334 332 330 329 327 324 323 321 321 320 319 320 318 317 315 315 314 313 311 308 307 306 305 303 302 302 303 303 303 302 301 298 298
318 322 320 328 335 339 339 339 335 330 329 329 328 327 325 324 322 321 319 317 316 315 314 313 312 311 309 307 304 303 303 301 301 302 301 302 302 303 303 303 302 301 301
318 320 319 329 336 338 334 332 330 327 326 326 325 324 322 321 319 318 316 314 313 312 312 311 309 307 305 303 302 302 302 300 299 300 302 302 302 302 302 306 306 303 302
313 315 322 329 332 330 329 328 326 325 325 325 323 321 319 317 315 313 312 311 309 309 308 307 306 306 304 301 301 300 300 299 298 299 299 300 304 304 304 304 302 303 302
316 316 323 329 326 325 324 324 324 323 323 321 319 317 315 314 311 310 309 308 307 304 304 304 304 304 302 300 299 299 299 297 297 298 298 299 304 302 302 301 300 300 299
316 321 324 321 321 322 323 322 321 322 320 319 317 314 311 310 308 306 305 304 304 303 303 303 304 302 300 299 298 298 296 296 296 297 298 302 303 302 302 301 298 297 297
314 314 314 316 318 320 321 321 320 320 319 316 313 308 306 304 303 303 303 303 303 303 303 303 302 300 299 299 296 295 294 294 294 296 298 303 304 304 304 301 299 299 298
312 313 314 315 315 316 318 318 317 314 310 307 303 303 302 303 302 302 301 300 299 299 299 299 300 299 301 299 299 297 293 293 293 293 297 298 302 302 304 304 304 301 297
309 310 310 310 309 309 307 305 304 304 303 302 302 302 302 301 300 299 298 296 295 295 296 296 297 297 295 297 297 299 293 292 292 293 293 294 298 301 299 299 300 300 301
300 301 301 301 302 302 302 303 302 301 301 300 301 301 300 298 297 296 294 294 293 293 293 294 295 299 299 296 296 296 292 291 292 292 292 292 295 298 296 296 297 297 297
297 297 299 298 298 298 299 300 300 300 301 299 299 299 299 296 295 293 293 292 292 293 297 298 298 294 295 294 294 293 291 291 289 291 292 293 295 295 294 295 295 296 296
298 298 297 297 297 298 299 298 298 299 298 298 298 298 297 295 294 292 292 292 295 297 296 293 295 297 290 293 292 291 289 287 288 288 290 294 294 293 293 293 294 293 293
299 300 298 296 296 297 297 296 296 296 298 297 296 294 292 292 292 291 291 290 288 288 288 288 289 290 291 289 291 291 287 287 287 287 289 291 293 292 291 293 294 293 294
296 297 296 295 296 296 295 293 293 295 295 294 293 292 289 291 291 289 288 287 286 286 286 285 286 288 289 292 291 290 290 290 285 286 288 290 291 291 291 293 293 292 294
294 293 291 291 292 293 293 291 292 293 292 289 288 288 289 289 289 288 287 286 285 284 284 284 284 285 287 287 290 289 289 289 288 288 290 291 291 292 293 293 293 293 293
292 291 290 288 288 290 290 290 290 291 289 287 287 287 288 287 288 288 288 285 285 285 285 286 283 285 287 287 287 287 289 291 288 289 287 290 292 292 292 292 293 293 293
292 291 289 288 288 290 290 291 292 292 289 288 288 289 289 289 289 291 288 288 288 289 287 287 286 285 286 287 289 288 288 289 290 290 288 288 289 288 289 290 291 291 291
291 289 288 288 288 290 290 291 292 290 288 289 290 288 289 288 288 286 286 291 290 290 290 290 288 288 289 289 289 289 289 289 289 288 286 286 287 287 288 288 288 289 290

GFSMW_sfc_thetae_165.txt.gz
Theta_e
329 332 335 337 337 335 335 335 335 332 334 341 341 338 338 346 347 349 350 350 349 347 339 330 327 324 319 317 315 314 314 315 315 312 310 315 316 307 307 311 310 312 314
326 328 332 331 334 333 334 336 336 334 334 335 341 341 345 344 344 343 340 339 336 335 328 325 322 320 316 313 312 311 310 313 313 307 306 304 306 307 307 309 310 309 311
324 326 329 329 331 330 331 333 336 333 334 335 334 339 340 336 333 331 330 330 332 328 324 322 321 318 316 311 310 311 313 309 310 311 304 298 298 303 306 308 308 307 307
325 327 326 327 329 330 332 333 334 334 335 335 336 335 338 331 331 330 329 329 331 330 327 323 320 317 315 313 312 313 312 310 305 308 312 308 306 300 299 304 306 306 306
324 325 326 327 329 329 328 329 330 332 334 333 338 337 336 331 329 328 326 326 327 327 325 321 318 317 315 314 311 310 311 309 305 307 307 304 303 303 301 298 302 302 304
324 324 326 326 326 328 327 327 327 328 334 332 338 338 331 327 324 324 324 324 324 322 320 319 317 316 315 314 313 311 310 307 307 307 305 303 302 301 299 297 300 299 301
319 321 322 321 323 325 325 327 328 332 337 334 338 334 329 327 324 324 322 320 318 316 316 317 317 315 315 314 313 310 310 308 306 305 304 303 302 302 300 298 298 297 300
317 319 321 320 321 324 324 330 328 329 331 334 335 332 329 326 323 324 324 320 318 317 319 318 316 314 314 312 309 307 307 305 304 302 300 301 301 301 300 299 296 298 301
317 318 321 323 323 322 325 326 329 329 325 332 333 331 326 324 323 324 321 319 319 319 316 314 312 310 308 306 304 303 302 301 300 299 299 299 301 301 301 300 299 299 296
316 317 320 322 327 327 331 325 326 331 331 331 329 328 326 325 324 321 318 317 314 313 312 310 308 306 305 304 302 300 300 299 298 300 299 299 300 300 301 300 303 303 300
316 317 320 325 329 333 336 329 329 329 329 328 326 325 323 321 320 316 314 311 310 310 308 307 306 305 303 301 300 299 299 297 296 297 299 299 299 299 303 303 303 302 301
316 318 318 329 332 331 331 329 328 327 326 325 323 319 318 316 314 311 309 308 306 306 305 305 305 304 302 300 299 298 297 296 295 296 297 298 302 303 302 303 302 299 297
312 317 325 327 328 326 324 324 325 323 322 320 317 315 312 311 309 307 306 305 304 303 304 304 304 302 301 299 298 297 296 295 295 295 296 297 302 301 301 302 300 298 299
318 325 324 323 323 323 322 321 320 320 319 317 314 312 309 306 305 304 303 304 304 303 303 302 302 301 299 298 297 296 294 294 295 295 296 298 301 301 301 301 300 299 298
318 319 319 320 320 320 319 320 319 319 318 314 309 305 304 304 303 303 302 302 302 301 301 301 301 300 299 299 296 295 293 292 293 294 296 297 301 304 303 301 297 297 295
313 315 318 319 318 318 319 319 317 313 307 303 302 304 303 302 301 299 299 298 298 298 299 298 299 297 299 299 300 299 292 291 291 292 293 293 298 300 301 300 301 300 297
309 308 308 310 313 312 310 306 304 304 303 302 303 302 301 299 298 297 297 295 295 295 294 295 295 295 295 297 296 298 291 290 290 290 290 291 296 299 296 296 298 299 300
299 299 299 299 301 304 303 303 303 302 301 300 300 300 298 297 296 295 294 293 293 293 293 294 295 296 295 294 294 294 290 289 289 289 289 289 291 294 294 293 293 295 295
297 297 298 298 299 300 303 302 301 302 299 298 297 297 297 295 296 294 292 292 292 292 292 295 295 289 288 293 292 290 287 287 287 289 289 291 291 294 293 293 293 293 294
298 297 298 297 298 298 299 298 297 298 297 297 296 297 295 295 292 291 290 289 288 288 290 289 290 293 287 291 292 291 287 285 286 286 288 292 292 293 292 291 292 291 292
297 297 297 295 296 298 298 296 295 294 295 295 294 294 293 291 289 287 286 286 286 286 285 286 286 286 288 287 291 291 287 286 286 286 286 288 291 292 291 292 293 291 293
296 295 294 294 296 297 295 293 292 293 294 294 293 291 289 291 289 286 285 285 285 284 283 283 283 285 286 289 289 290 290 291 287 285 286 287 291 291 291 292 292 292 293
291 291 290 289 292 294 294 291 292 293 292 290 288 287 288 288 287 285 284 284 284 283 282 282 281 283 285 285 289 289 290 292 290 290 291 292 291 291 292 292 293 293 292
289 289 288 287 287 289 291 291 291 291 288 286 286 287 287 286 286 287 285 284 283 282 282 282 281 285 284 285 287 287 287 289 289 291 290 291 290 291 291 291 292 291 291
288 288 287 287 287 288 289 289 290 289 287 286 286 286 286 286 286 286 285 285 286 287 282 282 282 282 283 286 289 288 287 287 288 289 288 287 287 287 288 288 289 290 290
288 287 287 288 289 290 290 290 289 288 287 286 286 285 285 285 286 286 285 290 290 290 290 289 287 285 288 289 289 289 289 289 289 288 286 286 286 286 286 286 286 288 288

GFSMW_sfc_thetae_168.txt.gz
Theta_e
329 334 334 334 335 335 335 335 333 335 337 339 341 338 338 345 346 344 345 351 349 347 338 332 326 325 321 320 319 318 318 316 316 312 312 316 317 313 313 314 314 315 315
326 331 334 333 334 334 335 333 333 334 335 338 338 335 330 335 336 338 336 339 337 334 331 328 326 324 319 317 316 317 315 314 315 311 309 304 308 311 313 312 314 313 313
324 327 330 330 332 334 334 335 334 334 335 337 334 330 328 332 333 334 331 332 330 329 329 327 325 320 316 314 317 317 317 310 313 315 310 303 303 306 310 313 313 311 311
325 326 328 327 330 330 330 331 334 333 335 337 336 330 328 324 332 329 330 329 329 327 327 324 322 318 317 315 316 317 314 313 309 312 314 313 312 306 303 308 310 310 310
324 323 326 328 329 331 329 330 332 333 333 334 333 331 328 329 328 328 327 326 327 329 327 323 320 318 318 315 315 315 314 311 311 312 311 310 308 308 306 302 304 308 309
322 324 326 326 327 327 327 326 328 330 333 333 334 333 332 332 324 324 324 324 324 325 323 321 319 318 317 318 316 314 314 312 312 311 309 308 307 305 304 302 303 302 305
321 322 323 323 324 324 324 325 326 326 331 330 337 334 330 327 323 323 323 322 321 321 319 319 318 317 317 316 314 313 312 309 308 307 307 306 305 306 305 303 302 300 304
319 321 321 320 322 324 323 326 326 327 333 331 335 332 329 326 324 324 323 322 320 319 320 317 315 315 314 311 309 307 307 305 304 303 303 304 305 305 305 303 301 299 300
316 318 319 320 321 323 323 326 327 329 333 335 330 328 327 326 324 323 323 322 319 319 316 313 310 310 309 307 306 304 303 302 302 303 303 303 304 304 305 305 303 301 296
316 317 320 321 322 322 324 325 328 327 332 332 330 328 327 326 324 323 320 318 315 314 311 309 308 307 307 306 304 302 302 301 300 301 302 302 303 304 305 305 304 304 300
316 317 319 322 325 326 325 325 329 329 330 329 327 326 325 324 322 319 315 312 310 310 309 308 307 306 304 303 302 303 301 300 299 300 300 301 303 304 304 305 303 301 300
315 316 319 323 328 328 326 327 329 326 327 327 326 325 323 320 315 311 309 308 306 307 307 307 306 304 303 302 301 299 299 298 297 298 299 300 302 305 305 304 302 301 301
313 316 322 326 330 331 330 327 326 324 323 321 318 317 314 311 309 306 305 305 305 305 306 306 304 303 302 301 300 299 298 297 297 297 298 299 301 303 303 303 302 302 302
314 319 325 327 328 327 325 323 321 320 319 317 315 311 308 306 304 304 304 304 305 304 303 304 303 302 301 300 299 298 296 296 297 297 298 298 298 300 302 302 301 300 300
319 321 322 322 321 320 320 320 319 319 318 314 309 306 304 304 304 303 302 302 302 302 303 303 302 301 300 300 299 297 295 295 295 296 296 297 299 302 303 300 299 299 298
317 319 319 319 318 318 318 319 314 308 306 305 303 303 302 301 300 300 299 299 299 299 300 299 300 298 298 298 298 298 295 294 293 293 294 294 298 298 301 299 299 300 298
308 311 315 316 317 316 309 305 305 306 304 303 302 301 300 299 298 299 298 297 297 297 297 297 298 295 294 294 294 295 292 292 291 292 291 292 295 296 297 296 297 298 298
299 300 302 303 306 308 307 306 306 304 302 300 299 299 298 297 297 297 296 296 296 296 296 295 293 292 293 293 293 292 290 290 290 291 291 291 293 295 295 294 295 296 297
299 299 302 303 303 304 304 303 301 300 299 297 297 297 297 296 295 294 293 293 293 292 293 292 291 290 290 292 292 291 290 289 289 290 291 292 293 293 293 293 293 294 295
299 300 300 299 299 299 300 299 298 298 297 297 296 297 296 295 291 290 290 290 290 289 290 289 289 291 289 290 291 291 290 288 289 290 291 291 292 292 292 292 292 292 293
296 297 297 296 296 297 297 295 295 294 295 296 295 294 292 291 289 289 288 288 287 287 287 287 288 288 289 289 290 291 290 290 290 289 289 291 291 292 291 292 293 292 293
295 296 295 295 296 297 295 293 292 293 294 293 292 291 290 290 289 287 287 287 287 286 286 286 287 288 289 290 290 290 290 291 291 290 291 292 291 291 291 292 292 292 293
292 293 292 292 294 294 294 292 292 293 292 291 290 290 289 288 288 287 287 286 286 286 286 285 285 287 288 289 289 289 290 290 290 291 291 291 290 290 291 291 292 292 291
289 290 289 288 289 292 292 292 292 292 291 289 288 288 288 288 288 288 287 287 286 286 285 285 285 286 287 287 289 289 290 290 290 291 290 291 290 290 290 290 290 290 291
288 289 288 288 288 289 289 290 290 290 289 288 288 288 288 288 287 287 288 288 289 288 286 286 286 285 285 287 289 289 289 289 290 290 290 289 288 287 287 287 288 289 289
288 288 288 289 289 289 289 289 289 289 288 287 287 287 287 287 287 287 287 290 290 289 288 288 288 287 288 288 288 288 288 288 289 288 286 286 287 286 286 285 285 286 286

GFSMW_sfc_thetae_171.txt.gz
Theta_e
338 341 340 340 340 341 343 343 342 345 347 345 345 347 347 351 351 353 353 352 354 342 334 329 326 325 324 324 325 323 323 319 322 317 318 322 325 323 318 322 320 320 319
335 337 339 340 340 342 344 344 344 348 349 350 351 349 348 347 348 348 349 349 343 335 330 325 323 323 321 322 325 324 319 318 322 314 314 309 314 319 319 322 319 319 317
332 334 337 339 341 340 342 344 345 349 351 352 350 345 342 342 341 342 336 341 340 334 328 323 321 319 321 321 322 323 323 316 321 322 313 308 306 310 318 317 318 318 316
335 336 337 338 340 340 343 345 346 349 349 348 342 342 339 336 341 335 333 333 337 330 325 322 321 320 320 322 322 322 320 320 316 320 320 319 315 307 305 314 315 316 315
334 336 337 339 340 342 343 346 346 345 345 346 345 339 340 336 334 332 330 329 329 326 323 321 321 321 324 321 321 321 321 322 319 318 316 316 314 315 309 305 309 313 314
333 336 339 339 340 341 340 341 342 343 344 345 345 344 341 333 331 329 326 324 323 322 322 322 322 323 323 322 320 322 320 319 318 317 315 311 308 308 308 307 308 308 310
330 332 334 334 337 338 337 338 340 340 342 342 343 343 343 337 333 330 326 323 319 319 321 322 323 322 322 321 320 318 315 315 314 313 311 312 310 311 310 308 307 303 308
328 331 333 335 335 336 337 337 338 339 340 340 341 342 342 337 334 332 326 322 320 321 323 323 321 320 317 315 315 313 313 313 313 310 311 310 311 311 310 308 304 301 304
329 329 332 333 334 335 336 337 337 337 338 339 338 335 335 334 332 326 326 324 324 323 321 319 315 314 313 313 312 311 311 311 309 310 310 309 311 311 311 310 307 302 298
327 329 330 332 333 335 335 337 337 337 338 338 335 332 333 332 330 326 323 322 322 318 316 313 313 313 312 311 310 310 309 308 307 308 309 310 310 311 310 309 307 305 301
326 328 330 332 333 333 334 335 334 335 334 332 331 330 329 328 326 324 321 317 316 316 313 312 310 309 309 310 309 308 307 307 307 307 307 308 310 309 309 308 307 305 303
327 328 329 332 332 332 332 331 332 332 331 330 330 327 327 325 319 315 313 315 316 315 312 310 308 307 306 307 306 305 304 304 304 305 306 307 307 309 309 307 307 306 305
323 326 328 330 332 332 328 329 330 330 330 329 325 321 317 312 311 310 311 313 312 311 311 309 308 306 305 304 304 303 303 303 303 305 305 305 305 306 306 306 305 304 304
321 324 328 330 333 330 328 323 321 321 320 318 315 314 312 310 310 311 311 310 309 308 308 308 307 305 304 303 303 302 303 303 303 304 303 303 303 304 305 306 304 303 303
319 324 327 329 325 324 320 319 317 314 311 308 307 307 307 306 306 306 306 306 308 309 309 308 306 305 303 301 302 303 302 301 301 302 301 302 301 301 302 303 303 303 302
320 323 323 321 320 319 313 308 307 307 305 304 302 303 302 302 303 303 304 306 306 305 306 306 305 303 299 295 296 298 300 300 299 299 300 301 300 301 300 300 299 300 299
306 316 319 318 318 310 308 308 308 308 306 303 302 301 301 301 301 302 302 302 302 303 302 303 302 300 299 293 293 294 299 298 299 299 299 299 300 301 301 301 300 302 300
301 303 305 308 309 310 312 316 315 310 305 302 301 301 300 299 299 299 298 300 302 302 300 299 299 299 297 293 292 293 299 299 299 299 299 299 300 299 297 299 301 303 303
301 302 304 305 306 306 306 305 303 304 300 299 299 299 299 298 297 297 299 300 300 300 299 298 298 297 297 292 292 295 299 298 298 299 299 298 299 293 293 297 299 300 302
300 299 300 300 300 301 303 301 299 299 297 297 297 297 295 294 294 296 297 297 297 297 297 296 297 294 296 291 292 293 297 296 297 299 299 295 294 292 292 296 297 297 298
299 299 299 296 297 299 298 295 295 294 296 295 295 293 293 293 294 295 295 295 296 296 296 295 296 296 294 296 291 291 296 295 296 296 296 296 292 291 291 291 296 293 294
297 297 296 296 298 298 297 296 294 296 295 294 294 293 295 294 295 295 295 296 296 295 295 295 295 296 296 292 292 291 291 292 296 295 295 295 291 290 291 293 290 291 293
295 296 295 295 296 296 295 292 293 294 293 292 291 292 293 293 295 295 294 294 295 294 294 294 293 294 295 296 293 292 291 293 295 295 293 292 291 291 293 291 291 293 294
293 294 295 295 294 295 294 294 294 294 293 291 291 294 295 295 295 295 294 293 293 293 293 292 292 292 293 293 294 295 296 294 295 294 296 293 293 292 292 293 294 291 289
295 297 297 296 295 297 296 297 297 298 296 295 294 295 295 295 294 294 294 293 292 291 291 291 291 290 290 290 289 290 292 292 291 293 294 293 292 292 292 293 291 288 287
296 296 296 295 295 295 295 296 297 297 296 295 295 294 294 294 294 293 291 289 289 288 287 288 289 292 288 287 288 288 288 287 288 292 290 290 289 289 290 289 285 284 284

GFSMW_sfc_thetae_174.txt.gz
Theta_e
339 346 347 347 347 348 348 350 349 353 352 346 341 339 338 340 343 347 350 352 355 357 348 338 332 331 325 325 327 324 323 321 325 321 320 322 327 327 325 324 324 323 323
338 344 346 346 346 347 348 350 350 351 351 345 345 344 345 346 350 354 356 357 352 343 340 337 334 331 328 326 325 321 319 320 325 318 318 313 317 322 321 324 323 323 322
337 342 344 345 347 347 348 349 350 351 350 351 351 353 353 353 348 342 345 344 347 340 339 335 334 331 327 323 321 322 322 320 323 325 317 310 309 312 320 320 321 323 321
335 341 344 345 346 348 350 351 350 350 350 354 354 355 346 346 347 339 343 341 336 336 334 334 332 329 322 324 323 325 325 325 319 320 322 322 319 310 310 317 319 320 320
334 338 342 345 347 349 349 351 351 351 350 353 353 347 349 347 342 339 337 337 337 340 335 332 324 321 321 324 323 325 325 323 320 318 316 318 315 318 313 309 313 317 317
334 339 342 344 346 347 349 348 350 351 352 352 352 351 349 344 339 337 333 331 331 332 327 329 326 323 324 324 324 326 325 324 321 318 316 313 311 311 311 310 312 313 315
334 339 340 341 345 346 347 348 349 348 350 350 350 351 351 347 343 340 335 328 324 325 329 329 323 323 328 327 326 324 320 319 316 316 314 314 315 315 315 313 311 310 313
332 337 341 342 343 345 346 346 347 348 349 350 351 352 352 346 344 342 336 332 330 328 325 323 325 328 326 324 321 318 317 317 315 316 316 315 315 316 315 313 311 307 309
329 334 340 342 344 345 346 346 346 347 348 347 349 350 348 348 342 339 339 332 324 322 323 324 323 322 322 321 320 316 316 316 315 314 315 315 315 316 316 314 313 308 304
329 333 337 341 344 345 346 347 346 345 346 346 343 344 342 341 339 335 329 324 322 320 316 316 319 320 319 318 317 316 314 313 313 313 315 316 316 315 315 314 313 312 307
330 333 336 340 341 343 342 343 343 343 342 341 339 339 337 334 332 325 322 318 316 316 315 315 315 317 316 316 316 315 311 311 312 312 311 312 314 313 314 313 313 310 309
330 333 336 338 339 339 340 336 338 337 337 335 331 329 328 327 317 317 315 317 316 316 315 314 312 313 314 314 313 311 310 309 309 310 310 311 311 312 313 311 310 309 309
331 333 335 336 337 336 332 334 333 331 329 325 320 317 315 314 313 313 312 312 312 312 312 312 311 312 311 310 309 311 309 309 308 309 309 309 310 310 310 308 309 307 305
331 332 334 336 331 330 326 324 323 318 315 313 311 310 310 310 311 309 310 310 312 310 311 311 310 310 310 309 310 308 308 309 309 309 309 308 308 308 307 307 308 305 303
325 329 333 331 326 322 319 316 313 312 313 310 308 308 307 307 307 307 308 308 308 309 309 310 310 309 307 302 305 307 308 308 307 309 308 308 305 302 303 303 306 305 302
323 329 329 321 318 314 313 312 314 312 312 307 306 308 310 308 308 306 306 306 308 309 309 308 309 306 301 295 295 298 304 306 307 306 307 308 305 305 303 302 302 301 302
313 321 320 313 311 311 313 318 316 313 312 311 310 309 307 308 307 304 304 305 305 306 306 306 306 305 301 293 294 295 306 306 306 306 306 305 305 304 304 302 302 304 302
307 308 309 310 312 313 318 318 317 314 311 309 308 307 305 304 302 302 301 303 305 304 304 305 306 304 298 293 293 294 306 306 305 305 304 302 301 297 297 299 302 304 305
305 307 307 306 309 312 314 312 310 308 305 304 303 306 306 302 302 301 302 302 303 303 302 303 303 303 297 292 292 296 305 304 303 302 302 301 300 293 293 297 300 302 303
302 303 304 304 304 308 309 305 302 301 301 300 301 305 302 299 297 299 299 301 303 302 302 302 303 297 300 291 292 294 302 303 303 303 300 294 294 292 292 297 297 297 300
299 301 301 299 302 308 308 302 299 297 298 298 299 298 297 297 297 297 300 302 302 302 302 302 303 302 298 298 292 292 300 298 301 301 301 299 292 292 291 291 296 295 295
298 299 298 298 300 301 301 297 295 297 297 297 296 295 296 297 298 299 301 303 302 302 302 302 302 301 303 293 293 292 292 294 300 299 300 299 291 291 291 294 290 292 294
297 298 298 297 297 298 298 296 294 294 294 293 294 296 297 301 301 300 300 300 302 301 301 300 300 300 300 299 295 293 293 294 297 298 296 293 292 292 296 293 292 292 291
295 298 299 298 298 300 297 295 295 296 295 293 294 297 297 300 300 299 300 298 299 298 298 297 296 297 297 295 296 297 297 294 296 297 300 296 295 294 296 298 294 290 288
300 301 302 301 300 301 301 301 301 302 299 295 297 298 298 298 297 296 296 294 292 292 294 295 295 294 293 291 289 290 292 293 293 293 298 296 296 297 296 295 293 289 288
301 304 305 304 303 303 303 304 304 304 303 302 301 301 300 299 298 295 292 288 288 288 288 288 289 293 287 287 287 288 288 288 288 295 295 294 294 293 292 291 287 286 286